CW5066 Weather Reports


time (UTC)temp
C
wind
direction
speed
KPH
gust
KPH
rain 1hr
cm
rain 24hr
cm
rain mn
cm
humidity
%
barometer
mb
20260502170516 7 225 3.2 9.7 0.00 0.76 0.00 29 1026.5
20260502163516 6 0.0 3.2 0.00 0.79 0.00 30 1025.9
20260502162536 5 338 3.2 9.7 0.00 0.79 0.00 29 1026.0
20260502161516 5 0.0 3.2 0.00 0.79 0.00 30 1026.7
20260502160516 5 270 4.8 11.3 0.00 0.79 0.00 29 1025.9
20260502151516 3 0.0 4.8 0.00 0.79 0.00 37 1025.7
20260502150516 3 0 1.6 8.0 0.00 0.79 0.00 38 1025.0
20260502130515 -1 293 3.2 4.8 0.00 0.84 0.00 52 1024.4
20260502123535 -1 293 1.6 4.8 0.00 0.84 0.00 53 1024.3
20260502122515 -1 293 4.8 6.4 0.00 0.84 0.00 54 1024.3
20260502121516 0 0.0 0.0 0.00 0.84 0.00 51 1024.8
20260502120515 0 68 1.6 4.8 0.00 0.84 0.00 48 1025.5
20260502115535 0 90 1.6 6.4 0.00 0.84 0.00 47 1025.4
20260502114515 0 68 4.8 11.3 0.00 0.84 0.00 48 1024.8
20260502113515 0 203 1.6 9.7 0.00 0.84 0.00 51 1024.1
20260502112515 -1 0.0 3.2 0.00 0.84 0.00 53 1024.2
20260502111535 -1 270 1.6 4.8 0.00 0.84 0.00 54 1024.9
20260502110515 -1 270 1.6 4.8 0.00 0.84 0.00 53 1024.9
20260502105515 0 270 1.6 4.8 0.00 0.84 0.00 52 1024.9
20260502104515 0 0.0 0.0 0.00 0.84 0.00 52 1026.2
20260502103517 0 270 1.6 3.2 0.00 0.84 0.00 52 1026.3
20260502102517 0 0.0 3.2 0.00 0.84 0.00 53 1026.4
20260502101518 0 270 1.6 3.2 0.00 0.84 0.00 52 1027.1
20260502100517 0 0.0 1.6 0.00 0.84 0.00 53 1027.1
20260502091517 -1 270 3.2 4.8 0.00 0.84 0.00 55 1026.3
20260502090537 -1 270 4.8 6.4 0.00 0.84 0.00 54 1026.4
20260502071516 0 248 3.2 4.8 0.00 0.84 0.00 55 1025.9
20260502070637 0 248 3.2 3.2 0.00 0.84 0.00 55 1026.1
20260502065536 0 0.0 0.0 0.00 0.84 0.00 56 1026.1
20260502064516 0 0.0 0.0 0.00 0.84 0.00 56 1025.5
20260502063516 0 0.0 0.0 0.00 0.84 0.00 56 1026.3
20260502062517 0 248 1.6 3.2 0.00 0.84 0.00 53 1026.2
20260502061536 0 225 3.2 4.8 0.00 0.84 0.00 58 1025.8
20260502060516 0 0.0 0.0 0.00 0.84 0.00 57 1025.9
20260502055517 0 0.0 0.0 0.00 0.84 0.84 57 1026.0
20260502054517 0 225 1.6 3.2 0.00 0.84 0.84 61 1026.6
20260502053517 0 225 3.2 4.8 0.00 0.84 0.84 62 1025.9
20260502052517 0 225 1.6 4.8 0.00 0.84 0.84 64 1025.8
20260502051517 0 225 1.6 4.8 0.00 0.84 0.84 65 1024.5
20260502050517 0 225 1.6 3.2 0.00 0.84 0.84 65 1024.4
20260502045517 0 225 1.6 4.8 0.00 0.84 0.84 64 1024.4
20260502044517 0 225 1.6 3.2 0.00 0.84 0.84 63 1023.7
20260502043517 0 248 1.6 3.2 0.00 0.84 0.84 60 1024.2
20260502042517 0 0.0 0.0 0.00 0.84 0.84 59 1024.1
20260502041517 0 0.0 0.0 0.00 0.84 0.84 54 1024.1
20260502040517 0 0.0 0.0 0.00 0.84 0.84 58 1024.2
20260502035517 1 0.0 0.0 0.00 0.84 0.84 58 1024.7
20260502034517 1 0.0 0.0 0.00 0.84 0.84 59 1024.7
20260502033517 1 0.0 0.0 0.00 0.84 0.84 60 1024.6
20260502032517 1 0.0 3.2 0.00 0.84 0.84 61 1024.6
20260502031517 0 0.0 3.2 0.00 0.84 0.84 62 1023.3
20260502030517 0 0.0 0.0 0.00 0.84 0.84 63 1023.2
20260502025537 0 0.0 0.0 0.00 0.84 0.84 65 1023.2
20260502024516 1 0.0 3.2 0.00 0.84 0.84 66 1022.2
20260502023517 1 0.0 3.2 0.00 0.84 0.84 66 1022.3
20260502022517 1 0.0 0.0 0.00 0.84 0.84 66 1022.1
20260502021517 1 0.0 0.0 0.00 0.84 0.84 64 1022.1
20260502020536 1 0.0 3.2 0.00 0.84 0.84 63 1022.3
20260502015516 2 315 3.2 6.4 0.00 0.84 0.84 62 1022.3
20260502014516 2 338 1.6 4.8 0.00 0.84 0.84 58 1022.2
20260502013517 3 0.0 0.0 0.00 0.84 0.84 57 1022.9
20260502012536 3 315 1.6 4.8 0.00 0.84 0.84 57 1022.8
20260502011516 3 315 3.2 8.0 0.00 0.84 0.84 59 1022.6
20260502010516 3 293 4.8 11.3 0.00 0.84 0.84 60 1022.6
20260502005516 3 338 4.8 12.9 0.00 0.84 0.84 52 1022.5
20260502004516 3 270 1.6 6.4 0.00 0.84 0.84 48 1022.3
20260502003516 3 0.0 3.2 0.00 0.84 0.84 48 1022.4
20260502002516 3 0.0 3.2 0.00 0.84 0.84 52 1022.5
20260502001516 4 0.0 3.2 0.00 0.84 0.84 48 1023.1
20260502000516 4 0.0 1.6 0.00 0.84 0.84 49 1023.2
20260501235517 4 0.0 1.6 0.00 0.84 0.84 50 1023.3
20260501234517 5 203 1.6 8.0 0.00 0.86 0.84 45 1023.1
20260501233516 4 0.0 0.0 0.00 0.86 0.84 48 1023.1
20260501232516 3 0.0 0.0 0.00 0.86 0.84 49 1022.6
20260501231517 3 0.0 1.6 0.00 0.86 0.84 49 1021.9
20260501230516 3 0.0 1.6 0.00 0.89 0.84 47 1022.4
20260501225516 4 135 4.8 20.9 0.00 0.89 0.84 50 1022.3
20260501224536 5 0.0 3.2 0.00 0.91 0.84 51 1023.7
20260501223516 6 203 3.2 9.7 0.00 0.91 0.84 46 1023.5
20260501222516 6 158 4.8 14.5 0.00 0.94 0.84 46 1024.0
20260501221516 7 203 1.6 9.7 0.00 0.94 0.84 42 1024.1
20260501220516 7 158 1.6 11.3 0.00 0.97 0.84 43 1024.2
20260501215516 7 180 1.6 8.0 0.00 0.99 0.84 50 1024.3
20260501214536 7 180 4.8 17.7 0.00 0.99 0.84 49 1023.8
20260501213516 6 135 6.4 16.1 0.00 1.02 0.84 47 1023.9
20260501212516 7 135 1.6 4.8 0.00 1.04 0.84 44 1024.5
20260501211516 7 180 3.2 11.3 0.03 1.04 0.84 49 1024.1
20260501210515 7 158 4.8 12.9 0.03 1.07 0.84 49 1024.5
20260501205516 7 180 6.4 16.1 0.05 1.07 0.84 54 1024.5
20260501204536 6 180 1.6 4.8 0.05 1.09 0.84 49 1024.5
20260501203515 6 158 3.2 14.5 0.10 1.12 0.84 44 1024.5
20260501202535 6 135 3.2 14.5 0.13 1.12 0.84 52 1024.7
20260501201515 6 180 4.8 11.3 0.13 1.12 0.81 52 1025.0
20260501200536 6 158 4.8 9.7 0.18 1.14 0.81 51 1025.1
20260501195536 5 158 3.2 9.7 0.18 1.12 0.79 54 1024.4
20260501194515 5 180 4.8 17.7 0.23 1.12 0.79 57 1024.6
20260501193516 4 135 3.2 14.5 0.23 1.09 0.74 46 1024.2
20260501192515 4 158 4.8 17.7 0.25 1.07 0.71 55 1024.4
20260501191516 4 180 4.8 14.5 0.28 1.04 0.69 56 1024.4
20260501190515 4 113 6.4 19.3 0.28 1.02 0.64 51 1024.3
20260501185515 4 158 3.2 11.3 0.30 0.99 0.61 56 1024.5
20260501184515 4 135 6.4 14.5 0.30 0.94 0.56 60 1024.6
20260501183515 3 180 1.6 6.4 0.33 0.89 0.51 61 1024.5
20260501182515 3 135 4.8 14.5 0.30 0.86 0.46 61 1024.1
20260501181515 2 158 3.2 8.0 0.30 0.81 0.41 63 1023.5
20260501180517 2 113 4.8 16.1 0.28 0.76 0.36 59 1024.1
20260501175537 3 180 4.8 16.1 0.23 0.74 0.30 61 1024.1
20260501174517 3 135 3.2 12.9 0.20 0.71 0.25 59 1024.2
20260501173517 3 135 1.6 11.3 0.13 0.64 0.18 61 1025.0
20260501172517 3 180 1.6 11.3 0.10 0.61 0.15 59 1025.1
20260501171537 3 135 3.2 11.3 0.05 0.56 0.10 63 1024.5